Home   Weather   Vitebsk   Past weeks
Flag for Belarus

Past Weather in Vitebsk, Belarus — Yesterday and Last 2 Weeks

Now
0 °F

Clear.


Feels Like: 0 °F
Forecast: 12 / 4 °F
Wind: 1 mph from Northeast

Location: Vitebsk

Current Time: Jan 24, 2019 at 10:27:52 am

Latest Report: Jan 24, 2019 at 9:00 am


Visibility: 10 mi

Pressure: 29.95 "Hg

Humidity: 92%

Dew Point: -2 °F

Location of VitebskLocation

Past Weather in Vitebsk — Graph

°F

Vitebsk Temperature Yesterday

Maximum temperature yesterday: 18 °F (at 2:00 pm)
Minimum temperature yesterday: 10 °F (at 7:30 am)
Average temperature yesterday: 15 °F

High & Low Weather Summary for the Past Weeks

 TemperatureHumidityPressure
High34 °F (Jan 17, 3:05 pm)100% (Jan 12, 6:07 pm)30.07 "Hg (Jan 12, 6:07 pm)
Low0 °F (Jan 22, 8:00 am)72% (Jan 9, 3:00 pm)28.85 "Hg (Jan 14, 2:00 pm)
Average21 °F91%29.62 "Hg
* Reported Jan 9 9:00 am — Jan 24 9:00 am, Vitebsk. Weather by CustomWeather, © 2019

Note: Actual official high and low records may vary slightly from our data, if they occured in-between our weather recording intervals... More about our weather records

Advertising

Vitebsk Weather History for the Previous 24 Hours

Scroll right to see more
 ConditionsComfort  
Time TempWeatherWind HumidityBarometerVisibility
9:00 am
Thu, Jan 24
0 °FClear.1 mph92%29.95 "Hg10 mi
8:00 am3 °FClear.3 mph92%29.95 "Hg10 mi
7:00 pm
Wed, Jan 23
12 °FClear.3 mph85%29.98 "Hg4 mi
6:00 pm14 °FSunny.3 mph85%29.98 "Hg10 mi
5:00 pm18 °FScattered clouds.3 mph73%29.98 "Hg6 mi
4:00 pm18 °FPartly sunny.6 mph79%29.98 "Hg6 mi
3:00 pm18 °FPartly sunny.8 mph86%29.98 "Hg5 mi
2:30 pm18 °FScattered clouds.6 mph86%29.98 "Hg5 mi
2:00 pm18 °FScattered clouds.6 mph86%30.01 "Hg5 mi
1:30 pm16 °FPartly sunny.8 mph93%30.01 "Hg5 mi
1:00 pm16 °FPartly sunny.8 mph93%30.01 "Hg4 mi
12:46 pm16 °FLight snow. Partly sunny.6 mph86%30.01 "Hg4 mi
12:30 pm16 °FLight snow. Mostly cloudy.6 mph86%30.01 "Hg3 mi
12:00 pm16 °FLight snow. Overcast.8 mph86%30.01 "Hg3 mi
11:30 am14 °FLight snow. Overcast.8 mph92%30.01 "Hg3 mi
11:00 am14 °FLight snow. Low clouds.6 mph92%30.01 "Hg3 mi
10:30 am14 °FLight snow. Low clouds.6 mph92%30.01 "Hg2 mi
10:00 am14 °FLight snow. Low clouds.6 mph92%30.01 "Hg3 mi
Weather by CustomWeather, © 2019

See weather overview